Location: Kaarina
(60.4167°N, 22.4167°E)
Time: 02:34:33
(UTC+03:00)

Cosmos 494 Rocket - Pass Details

Date: 24 August 2019
Orbit: 742 x 771 km, 74.1° (Epoch: 18 October)

Event Time Altitude Azimuth Distance (km) Brightness Sun altitude
Rises 23:30:45 0° 326° (NNW) 3,197 9.2 -14.6°
Reaches altitude 10° 23:33:09 10° 323° (NW) 2,271 7.8 -14.8°
Maximum altitude 23:38:08 54° 247° (WSW) 907 4.4 -15.1°
Enters shadow 23:41:24 21° 177° (S) 1,634 5.2 -15.3°
